Zurück zum Katalog

STARLINK-35131

AktivKommunikationVLEO
NORAD 66075·PAYLOAD·🇺🇸 United States

Gestartet Oct 19, 2025 von Cape Canaveral Space Force Station

Loading…

Nächste Überflüge (nächste 24 Stunden)

TLE

AktuellSource: CelesTrak SupGP

Epoche: Sep 14, 2026, 14:03 UTC

1 66075C 25235T   26257.58590278  .00000903  00000+0  26671-4 0  2571
2 66075  53.1575  85.1623 0000887 115.7851 127.7368 15.34398452    17

Verfolge STARLINK-35131 in Echtzeit mit AllMySat

Download on the App Store